Погода Николо-Полома

Погода Николо-Полома : погода сейчас, прогноз погоды и архив. Всё, что Вы хотите узнать о погоде Николо-Полома!

Поиск расширенной информации на нашем сайте:

Другие новости

Новости СМИ2

Главная страница сайта

Новости сайта

03.07.2017

Напоминаем, что на нашем специализированном сайте Метеоцентр.Азия вы можете получить высокодетализированные автоматические прогнозы погоды по пунктам России, СНГ и мира в авиационном формате (включающие направление и скорость ветра, видимость, явления погоды, количество и форму облачности, нижнюю и верхнюю границу облачности).

Рекомендуем: Туалетная Бумага

Погода Николо-Полома - сегодня

Время (UTC), дата Ветер
(°,м/с) 
Видим.   Явления Облачность Т
(°С)
Тd
(°С)
f(%) Тe
(°С)
Pmin
(гПа)
dP
(гПа)
Po
(мм)
O2
(г/м3)
Тmin Tmax R s Состояние
почвы
21 17.06.18 320 (СЗ) 20000 м    3/0 средняя 
[Ac lent]
+16 +12.3 79 +21  1016.5  749  283           
00 18.06.18 320 (СЗ) 22000 м    3/0 средняя 
[Ac trans]
+14 +11.7 86 +19  1016.7  0.1  749  285           
03 18.06.18 330 (СЗ) 50000 м    8/6 600 м средняя 
[Sc|Ac trans]
+17.7 +13.2 75 +25  1016.5  0.1  749  281  +13.4        влажная 
06 18.06.18 210 (ЮЗ) 50000 м    3/0 средняя 
[Ac trans]
+24.3 +12.3 47 +29  1015.6  -0.4  749  275           
09 18.06.18 310 (СЗ) 50000 м    8/5 600 м средняя 
[Cu med, cong|Ac trans]
+24.8 +10.5 41 +27  1015  -0.6  748  275           
18 18.06.18 280 (З) 50000 м    3/0 средняя 
[Ac trans]
+20.5 +12.2 59 +25  1012.8  -0.7  747  277           
21 18.06.18 270 (З) 4000 м  дымка  1/0 верхняя 
[Ci fib]
+14.2 +12.8 91 +20  1012.9  -0.3  746  283           
03 19.06.18 тихо ()   50000 м    1/0 средняя 
[Ac trans]
+18.3 +14 76 +25  1011.7  -0.5  746  279  +11.2        влажная 
06 19.06.18 290 (З) 50000 м    4/0 средняя 
[Ac trans]
+24.5 +13.7 51 +31  1010.5  -0.8  745  273           
09 19.06.18 270 (З) 50000 м    9/8 600 м кучево-дожд., верхняя 
[Cb calv|Ci fib]
+26.5 +12.1 41 +31  1008.9  -1.5  744  271           
18 19.06.18 290 (З) 50000 м  в посл. час гроза  10/4 600 м кучево-дожд., средняя, верхняя 
[Cb calv|Ac und|Ci fib]
+19.4 +13.2 67 +27  1004.7  -1.4  741  276           
21 19.06.18 240 (ЮЗ) 20000 м    10/3 600 м кучево-дожд., средняя 
[Cb cap|Ac und]
+17.8 +12.4 71 +24  1003.4  -1.4  740  277           
00 20.06.18 230 (ЮЗ) 50000 м    10/4 600 м средняя 
[Sc|Ac und]
+15.9 +11.9 77 +21  1001.1  -1.4  738  279           
03 20.06.18 260 (З) 12000 м  в посл. час ливневой дождь  10/4 300 м кучево-дожд., средняя 
[Cb cap|Ac und]
+15.7 +13.8 88 +23  999.1  -2  736  278  +15.2    0.3    влажная 
15 20.06.18 250 (З) 3{25}  50000 м  {гроза, ливн. осадки}  8/4 600 м кучево-дожд., средняя, верхняя 
[Cb calv|Ac trans|Cs]
+12.9 +9.1 78 +13  1001.5  1.5  738  282    +18.8     
18 20.06.18 270 (З) 50000 м  {гроза, ливн. осадки}  9/1 600 м кучево-дожд., средняя, верхняя 
[Cb calv|Ac trans|Cs]
+12.1 +7 71 +11  1001.3  -0.3  738  283           
21 20.06.18 230 (ЮЗ) 4000 м  в посл. час ливневой дождь  3/3 300 м кучево-дожд. 
[Cb calv]
+8.8 +7.7 93 +8  1001.8  0.3  738  287           
03 21.06.18 290 (З) 5{11}  50000 м    1/0 средняя 
[Ac lent]
+13.1 +8.2 72 +12  1001.9  0.5  738  282  +7      мокрая 
18 21.06.18 290 (З) 2{11}  50000 м    3/0 верхняя 
[Ci fib]
+15.2 +4.5 49 +16  1007.5  1.9  742  283           
21 21.06.18 260 (З) 20000 м    3/0 верхняя 
[Ci fib]
+9.9 +5.5 74 +10  1009.5  1.6  744  288           
00 22.06.18 280 (З) 20000 м    6/0 верхняя 
[Ci fib]
+8.7 +6.6 87 +9  1010.8  1.2  745  290           
03 22.06.18 270 (З) 50000 м    6/0 верхняя 
[Ci fib]
+12.7 +9.2 79 +14  1011.3  0.8  745  285  +8.1        влажная 
06 22.06.18 250 (З) 50000 м    9/0 верхняя 
[Ci fib]
+20.2 +9 48 +20  1011.4  0.5  746  278           
09 22.06.18 310 (СЗ) 50000 м    8/1 600 м верхняя 
[Cu hum|Ci fib]
+23 +9.4 42 +24  1010.9  -0.3  745  275           
12 22.06.18 270 (З) 50000 м    5/4 600 м верхняя 
[Cu med, cong|Ci fib]
+25.4 +11.2 41 +28  1010.1  -0.6  745  273           
Время (UTC), дата Ветер
(°,м/с) 
Видим.   Явления Облачность Т
(°С)
Тd
(°С)
f(%) Тe
(°С)
Pmin
(гПа)
dP
(гПа)
Po
(мм)
O2
(г/м3)
Тmin Tmax R s Состояние
почвы

Для получения пояснительной информации подведите курсор к названию столбца.

ПОГОДА Николо-Полома - архив

Всё, что Вы хотите узнать о погоде Николо-Полома - удобно и подробно!

Выберите нужную дату (начиная с 1 января 2015* года) и нажмите кнопку "Найти".
Будут отображены архивные сводки погоды по пункту Николо-Полома, начиная с указанной даты.


Отображать данные в формате CSV (для использования в таблицах Excel)


Внимание! Наш архив погоды предназначен исключительно для личного некоммерческого использования в познавательных целях. Если Вам необходимы официальные справки о состоянии погоды (для производственных, юридических, коммерческих и т.п. целей), обращайтесь в органы Росгидромета.

*Примечание: данная дата относится к архиву по метеостанциям СССР (Россия, СНГ, Балтия).
Архив по метеостанциям Зарубежной Европы и Азии (кроме Китая) хранится 10 дней, по другим регионам земного шара (Китай, Африка, Америка, Австралия, Океания) - 1 день.

Николо-Полома - район местоположения метеостанции


Название, широта, долгота, высота метеостанции:
Николо-Полома 58.3°ш. 43.4°д. 150 м над ур. моря [Российская Федерация]

Дополнительная информация

В oтличие oт бoльшинства пoгoдных сайтoв мы публикуем пoдрoбную метеoинфoрмацию в детальнoм прoфессиoнальнoм фoрмате.

Характеристики температуры и влажнoсти вoздуха измеряются на высoте 2 м в тени вдали oт зданий и деревьев.
Скoрoсть ветра измеряется на высoте 10 м (на урoвне рoста челoвека скoрoсть ветра ниже в 1.5-2 раза). Если метеoстанция нахoдится в гoрoде или в лесу, тo скoрoсть ветра занижена на 2-4 м/с пo сравнению с oткрытым местoм. Скoрoсть ветра над акватoриями крупных рек и oзёр, а также на вершинах хoлмoв на 2-5 м/с выше, чем в oбычных услoвиях.
Атмoсфернoе давление в разных тoчках местнoсти мoжет значительнo oтличаться oт давления на метеoстанции, в зависимoсти oт услoвий рельефа (при пoдъёме на 10 м давление пoнижается примернo на 1 мм рт.ст.).